Find Starlink 31779

NORAD ID: 59744 Int'l Des: 2024-090 Owner: SPXS Country: US Constellation: starlink operational
LEOCIRCULAR

Current View

Loading 3D Globe...

About Starlink 31779

Starlink 31779 (NORAD 59744) is a starlink constellation satellite (v2 mini) launched May 13, 2024 by SPXS of US. It operates in LEO, CIRCULAR orbit with a mass of 730.00 kg.

Upcoming Passes

Passes for default location (London). Set your location on the main map for personalized predictions.

Altitude History

Loading altitude history...

Two-Line Element Set

1 59744U 24090Q 26264.13703267 .00000186 00000-0 16270-4 0 9998
2 59744 43.0021 159.5041 0001169 271.0122 89.0596 15.27576736133337
Epoch: Sep 21, 2026 • Age: 17 hours

Current Status

Altitude 485.2 km
Apogee / Perigee N/A
Velocity 7.62 km/s
Sub-Earth Point -13.63°S, 167.19°W
Launch Date May 13, 2024
Age 2.3 years
Type internet

Technical Details

Classification Payload
Mass 730.00 kg
Dry Mass 700.00 kg
Length 0.30 m
Span 29.00 m
Shape ? Box + pan
Manufacturer SPXS
Bus Type Starlink V2M
Phase Status In Orbit
Owner/State SPXS/US

Most Searched